Wind_Speed
26 24 22 21 18 17 15 13 12 12 12 12 11 13 11 11 12 11 8 13 6 10 5 4 4 6 7 10 7 9 9 6 6 7 5 5 5 4 5 6 7 8 8
29 28 27 25 23 21 19 17 16 15 14 13 13 12 12 15 17 17 14 12 12 13 11 9 8 6 6 10 11 11 11 10 11 8 7 5 6 4 3 2 3 5 8
28 29 32 29 27 25 23 21 20 19 18 17 16 15 15 16 15 13 12 14 13 15 15 13 11 9 10 9 12 14 15 13 8 3 14 14 14 8 5 6 5 4 6
28 29 31 31 31 30 28 26 25 23 22 21 21 20 19 18 18 18 17 17 12 18 16 17 16 15 11 10 3 10 11 9 11 7 4 2 5 7 8 8 10 9 9
34 32 28 30 31 28 32 30 28 26 25 26 25 25 24 21 19 19 20 21 21 24 22 21 20 20 17 17 13 19 14 10 14 14 14 15 14 12 10 13 11 12 10
31 31 28 25 28 31 31 33 30 32 30 30 29 28 26 24 23 22 20 22 24 25 25 26 26 24 24 23 26 26 27 25 24 25 20 18 20 19 16 14 18 19 17
34 37 29 24 27 29 32 29 33 30 33 32 30 30 29 29 27 24 23 23 25 27 27 27 27 26 26 26 26 26 27 26 24 25 26 24 24 23 25 22 18 17 19
33 36 33 25 26 28 31 33 36 36 29 33 31 29 30 29 30 27 26 25 25 27 28 28 28 28 28 28 27 27 26 27 28 29 28 26 24 23 27 28 28 29 28
32 31 29 26 25 27 30 31 30 30 34 35 29 31 34 34 31 31 30 28 27 28 29 30 31 31 31 31 30 30 29 29 30 33 33 29 28 27 28 30 31 31 33
37 35 33 32 26 26 29 31 30 33 33 32 34 35 33 29 34 35 33 32 31 30 30 31 31 32 33 32 32 32 32 33 33 35 36 31 29 30 30 33 33 35 33
32 29 30 36 33 29 26 32 33 32 31 34 33 34 34 38 43 32 32 34 34 32 32 32 33 33 34 34 33 34 34 35 35 37 37 33 31 31 33 33 35 35 36
28 25 27 29 37 36 26 28 34 35 39 36 31 36 41 37 32 34 32 31 34 35 34 33 34 34 35 34 34 35 35 36 37 38 39 33 32 35 35 35 35 36 37
36 36 36 34 34 37 34 28 33 36 38 35 38 42 43 43 37 35 35 35 36 34 36 37 35 35 36 35 36 36 36 37 38 39 40 36 35 35 36 36 36 37 37
31 31 28 28 29 35 36 33 29 35 34 38 41 40 38 35 37 36 36 36 36 35 34 34 35 35 36 36 36 36 36 37 38 39 41 39 37 37 37 37 38 38 38
33 30 32 37 40 36 28 35 28 27 34 38 41 36 38 40 35 32 31 32 32 32 33 32 33 34 35 35 36 36 36 37 37 38 39 39 38 38 38 38 38 39 38
32 32 39 41 37 35 34 33 28 29 30 32 32 32 31 31 31 31 31 31 32 33 33 32 33 34 34 34 35 35 36 36 36 37 37 37 37 36 37 37 38 38 38
39 38 35 35 35 35 32 30 28 30 30 31 31 31 30 30 30 30 30 31 31 32 32 32 32 32 33 33 33 34 34 35 35 35 35 35 36 36 36 36 37 38 38
33 32 31 30 29 28 27 27 28 28 29 29 30 29 30 30 30 30 30 30 30 30 32 31 31 31 31 32 32 33 34 36 37 37 38 38 39 39 40 40 40 41 40
25 25 26 25 24 24 25 27 27 27 27 28 28 29 30 30 30 30 30 30 31 31 32 33 33 34 35 35 36 36 36 37 38 38 38 38 39 39 40 40 40 41 42
18 17 17 18 19 20 21 22 23 23 24 24 24 24 25 26 27 27 27 27 28 28 29 29 29 30 31 31 33 33 34 34 35 36 35 36 36 36 37 38 37 37 37
17 16 14 14 15 17 17 18 19 20 20 21 22 23 22 23 23 23 24 24 24 25 26 27 28 28 29 29 31 31 32 32 33 34 34 34 34 35 35 35 36 35 36
14 13 13 13 14 15 16 18 18 19 19 20 20 20 20 21 21 21 22 22 23 24 25 26 26 27 28 29 30 30 31 32 32 35 33 33 35 33 35 35 35 36 36
13 14 13 14 15 16 17 18 18 19 20 20 20 20 20 21 21 22 23 24 24 25 26 27 27 28 29 30 31 31 32 33 34 34 37 35 35 35 36 38 37 37 38
15 15 16 16 17 17 18 18 19 20 20 20 20 21 22 22 23 24 24 24 25 26 27 28 29 29 30 32 34 34 35 36 36 37 39 40 36 38 39 39 40 39 40
17 18 18 19 19 19 18 18 19 19 20 20 21 22 23 24 24 25 26 27 28 28 31 32 33 34 34 35 36 37 37 40 40 40 40 43 41 40 41 42 41 41 41
19 19 19 20 20 19 19 19 19 20 21 21 22 23 23 25 26 27 29 30 30 31 33 34 36 37 37 38 38 39 40 41 41 43 39 42 41 41 42 41 40 40 40
Wind_Direction
225 219 221 225 226 226 225 224 223 223 225 221 220 213 210 212 214 213 213 231 228 211 229 233 242 240 236 233 263 238 224 213 197 185 189 178 168 187 202 218 219 229 236
232 224 222 223 226 229 233 234 231 233 235 233 232 232 233 226 239 228 226 226 215 226 225 246 266 277 241 233 226 246 212 199 205 193 196 162 161 167 179 196 230 236 241
234 231 225 224 226 228 232 236 240 238 238 241 242 241 241 238 245 242 243 225 235 241 245 252 241 260 270 284 246 231 216 207 136 246 247 252 262 241 228 261 282 259 256
233 229 230 231 228 227 229 233 236 240 243 241 242 243 242 243 248 250 248 245 246 234 239 247 261 260 246 180 156 217 196 193 179 176 184 244 257 239 245 238 247 256 257
240 240 233 233 231 232 234 232 239 241 245 249 249 247 246 245 248 250 247 249 247 245 247 246 245 248 254 235 230 244 244 251 267 267 264 267 263 263 255 254 261 262 263
247 245 236 233 239 238 237 236 237 241 243 247 253 257 255 245 244 250 254 249 248 251 252 252 252 245 242 234 249 254 259 262 265 267 258 261 263 263 260 255 251 265 257
248 248 249 250 243 241 240 245 233 241 246 248 252 253 258 256 247 244 247 248 247 248 249 249 251 254 249 247 251 257 261 263 259 256 257 258 264 265 266 252 247 261 263
246 250 255 249 242 241 235 225 230 239 239 243 255 258 256 254 260 252 249 249 249 249 250 252 253 253 252 253 251 255 261 266 268 267 268 268 264 261 263 262 259 257 257
250 252 263 264 251 238 236 231 230 232 241 243 248 249 251 261 261 260 257 254 252 250 250 250 251 252 254 255 255 257 259 261 265 268 268 269 270 266 264 264 263 259 253
237 249 264 267 260 256 244 230 237 233 234 246 242 253 253 254 259 263 259 256 257 256 255 255 255 256 257 257 258 260 261 263 265 267 269 269 268 267 263 262 260 261 258
255 258 264 271 268 267 256 238 238 233 238 236 243 247 242 254 263 261 261 254 255 257 257 257 257 257 258 259 260 260 261 262 263 265 268 270 271 269 266 263 263 262 263
233 244 253 265 276 276 266 247 231 235 238 238 241 247 254 254 257 259 254 259 258 256 258 258 258 259 260 260 261 262 263 264 265 267 270 269 268 266 267 266 265 265 265
248 259 260 263 266 270 275 263 237 237 243 246 247 249 253 255 253 251 255 257 257 259 259 258 259 260 261 262 261 261 261 263 265 267 270 270 268 267 267 268 267 266 266
241 236 242 251 260 273 276 273 261 237 240 246 246 246 256 250 253 254 255 257 261 259 258 257 259 261 262 262 263 263 262 262 263 264 266 267 266 266 265 264 265 265 265
242 254 254 258 265 272 266 261 265 257 244 244 249 255 245 250 256 256 257 258 259 261 260 261 261 262 263 264 265 265 265 264 264 264 265 266 266 266 266 265 265 265 266
243 243 256 263 264 263 261 262 257 253 250 250 249 249 249 251 254 256 258 259 260 261 262 262 262 262 263 264 264 265 265 266 266 266 267 268 268 268 267 267 267 267 266
250 256 256 258 259 260 259 255 252 251 249 249 248 247 249 251 253 255 256 258 259 262 264 263 263 264 264 265 266 266 266 266 266 267 268 269 270 270 270 270 269 269 269
245 252 255 256 255 252 250 249 250 248 248 247 247 248 250 252 253 253 254 255 256 259 262 263 265 265 265 266 267 268 269 270 271 271 271 272 273 273 274 273 272 272 271
240 245 247 248 248 247 246 247 248 249 250 250 250 252 253 254 256 258 259 261 262 263 265 267 268 268 269 269 270 271 271 271 272 273 274 274 274 274 274 275 274 274 273
224 231 236 241 244 246 249 253 256 258 259 260 262 264 265 265 264 265 265 265 265 265 265 267 267 268 269 269 270 270 271 272 274 274 275 276 276 276 276 276 277 277 275
213 216 224 234 243 247 251 255 259 259 260 262 262 262 263 264 264 263 263 263 264 265 266 267 268 269 270 271 271 273 273 275 275 274 275 275 276 278 277 276 277 277 277
219 224 230 235 241 248 253 257 261 264 264 263 263 264 264 263 264 265 266 267 269 269 269 270 273 274 276 277 278 278 278 278 280 280 278 278 279 277 278 277 277 277 277
231 238 243 246 249 251 254 256 257 257 259 261 263 264 265 266 267 267 268 269 270 271 272 274 276 278 278 279 280 280 280 280 280 280 281 279 280 281 280 281 279 279 279
248 253 257 259 259 258 258 258 258 259 261 263 264 265 266 266 267 269 270 273 275 277 277 277 276 276 278 279 281 281 281 281 281 281 282 282 281 282 281 280 281 281 281
250 253 255 259 261 262 262 262 263 262 262 261 262 264 267 270 272 274 275 276 279 282 282 282 284 284 283 283 283 283 284 283 283 283 282 283 283 280 280 280 281 280 280
249 251 254 257 260 262 263 263 262 262 260 260 262 266 269 271 273 275 276 278 278 279 280 281 282 282 282 282 283 284 284 283 283 283 284 284 284 283 281 279 279 278 278
Height
3160 3163 3166 3168 3171 3172 3175 3177 3179 3181 3182 3184 3186 3187 3188 3190 3192 3194 3195 3196 3198 3199 3200 3202 3203 3204 3204 3205 3206 3207 3208 3209 3210 3210 3211 3212 3212 3213 3214 3216 3217 3218 3219
3157 3160 3163 3166 3168 3171 3173 3175 3177 3179 3181 3183 3185 3187 3188 3190 3191 3193 3194 3196 3197 3198 3199 3201 3202 3203 3202 3203 3203 3205 3206 3206 3208 3208 3209 3210 3212 3213 3214 3215 3216 3217 3218
3152 3155 3158 3162 3165 3168 3170 3173 3175 3177 3179 3181 3183 3184 3186 3188 3189 3191 3192 3194 3195 3197 3198 3199 3201 3203 3202 3201 3200 3200 3202 3205 3206 3208 3210 3211 3212 3212 3214 3214 3216 3216 3217
3148 3151 3154 3157 3160 3163 3166 3169 3172 3174 3177 3179 3181 3182 3184 3186 3187 3189 3191 3192 3194 3193 3197 3198 3200 3201 3203 3203 3199 3201 3202 3202 3203 3208 3209 3210 3211 3212 3213 3214 3215 3216 3216
3143 3147 3151 3153 3155 3159 3162 3165 3168 3171 3173 3175 3177 3179 3181 3182 3184 3186 3188 3189 3191 3191 3194 3195 3197 3198 3200 3202 3201 3200 3202 3204 3206 3207 3208 3209 3210 3211 3212 3213 3213 3213 3214
3139 3141 3145 3150 3152 3154 3157 3161 3164 3166 3169 3171 3173 3174 3176 3179 3181 3183 3184 3186 3187 3188 3190 3191 3192 3195 3196 3197 3198 3199 3199 3201 3202 3203 3205 3205 3207 3208 3209 3209 3210 3211 3211
3134 3135 3140 3145 3146 3149 3151 3154 3158 3161 3163 3166 3168 3170 3172 3173 3176 3178 3181 3182 3183 3184 3186 3187 3188 3190 3191 3193 3195 3195 3195 3196 3197 3198 3199 3202 3204 3205 3204 3206 3206 3207 3208
3129 3131 3134 3138 3141 3143 3146 3150 3152 3155 3159 3160 3163 3165 3167 3169 3170 3173 3175 3177 3178 3179 3181 3182 3183 3184 3186 3188 3189 3190 3191 3190 3190 3191 3193 3196 3198 3200 3199 3200 3200 3202 3204
3124 3127 3130 3132 3135 3137 3139 3143 3146 3149 3153 3156 3157 3161 3161 3162 3165 3166 3169 3171 3173 3174 3176 3177 3178 3179 3181 3182 3184 3185 3186 3186 3185 3184 3186 3191 3193 3193 3194 3193 3194 3194 3196
3118 3121 3124 3127 3130 3133 3134 3137 3140 3142 3146 3149 3152 3155 3156 3158 3159 3161 3163 3164 3166 3168 3169 3171 3172 3173 3174 3176 3178 3180 3180 3180 3180 3179 3180 3185 3187 3187 3187 3187 3187 3186 3188
3112 3116 3119 3121 3123 3127 3129 3130 3133 3137 3140 3142 3144 3147 3149 3151 3152 3154 3156 3159 3160 3161 3163 3165 3165 3166 3168 3170 3172 3173 3174 3174 3174 3173 3174 3178 3180 3179 3178 3178 3179 3179 3180
3107 3111 3114 3115 3117 3119 3123 3125 3127 3130 3133 3136 3138 3141 3142 3145 3147 3148 3149 3152 3153 3155 3156 3158 3159 3160 3161 3163 3165 3166 3167 3167 3166 3166 3165 3170 3172 3170 3170 3171 3172 3172 3172
3102 3105 3108 3110 3113 3114 3116 3118 3121 3124 3127 3130 3131 3134 3135 3137 3140 3141 3142 3144 3144 3147 3149 3150 3151 3153 3154 3156 3156 3158 3159 3159 3159 3158 3157 3161 3162 3162 3162 3162 3163 3164 3164
3096 3099 3102 3104 3107 3108 3110 3111 3113 3116 3119 3122 3124 3126 3128 3131 3132 3134 3135 3137 3138 3139 3140 3143 3144 3145 3146 3147 3149 3150 3151 3151 3151 3151 3151 3153 3154 3155 3155 3155 3155 3155 3156
3090 3093 3096 3099 3101 3102 3104 3106 3107 3109 3112 3115 3117 3118 3121 3124 3125 3126 3128 3130 3131 3132 3133 3135 3136 3137 3138 3139 3140 3141 3142 3143 3143 3143 3143 3144 3146 3146 3147 3147 3147 3147 3147
3085 3088 3090 3092 3094 3096 3098 3099 3101 3103 3106 3108 3110 3112 3114 3117 3119 3120 3122 3123 3124 3124 3126 3128 3129 3129 3130 3131 3132 3133 3133 3134 3134 3135 3135 3135 3136 3137 3137 3137 3138 3138 3139
3078 3080 3082 3084 3086 3088 3090 3092 3094 3096 3099 3101 3103 3105 3107 3109 3111 3113 3115 3116 3117 3117 3118 3119 3121 3122 3123 3123 3124 3124 3125 3125 3125 3126 3126 3126 3127 3127 3128 3129 3129 3129 3129
3071 3074 3076 3077 3079 3082 3084 3086 3088 3090 3092 3094 3097 3099 3101 3103 3105 3106 3107 3108 3110 3110 3111 3112 3113 3114 3114 3115 3115 3116 3117 3116 3116 3117 3116 3117 3117 3117 3117 3118 3118 3118 3119
3065 3068 3070 3072 3074 3076 3079 3081 3083 3085 3087 3089 3091 3093 3095 3096 3098 3099 3100 3101 3102 3103 3104 3104 3105 3105 3106 3107 3107 3107 3107 3107 3107 3107 3107 3106 3107 3107 3106 3106 3107 3107 3107
3060 3063 3066 3068 3070 3072 3074 3076 3078 3079 3081 3083 3084 3086 3087 3089 3090 3092 3093 3094 3095 3095 3096 3097 3097 3097 3098 3099 3098 3098 3099 3099 3099 3098 3098 3097 3098 3098 3097 3096 3097 3097 3096
3057 3060 3062 3065 3067 3069 3071 3073 3074 3076 3077 3078 3080 3081 3082 3083 3084 3085 3086 3087 3088 3089 3090 3090 3090 3090 3090 3090 3090 3090 3090 3091 3091 3090 3089 3089 3090 3089 3088 3088 3087 3087 3087
3054 3057 3059 3061 3064 3066 3068 3069 3070 3072 3072 3074 3075 3076 3077 3078 3079 3080 3081 3081 3082 3083 3083 3083 3083 3083 3082 3083 3082 3082 3082 3082 3083 3081 3081 3081 3079 3080 3078 3078 3078 3077 3077
3051 3054 3056 3058 3060 3062 3063 3065 3066 3067 3068 3069 3070 3071 3072 3073 3074 3075 3075 3076 3076 3076 3077 3077 3077 3076 3076 3075 3075 3075 3074 3073 3073 3073 3070 3072 3070 3069 3069 3067 3068 3067 3066
3047 3049 3052 3053 3055 3057 3059 3060 3061 3062 3063 3064 3065 3066 3067 3067 3068 3069 3069 3070 3070 3070 3070 3070 3070 3069 3068 3067 3066 3065 3065 3064 3064 3064 3061 3060 3062 3060 3059 3058 3057 3056 3055
3043 3045 3047 3049 3050 3052 3053 3055 3056 3057 3058 3059 3059 3060 3060 3061 3061 3062 3062 3062 3062 3062 3061 3061 3060 3059 3059 3059 3058 3056 3056 3054 3053 3053 3052 3048 3050 3049 3048 3047 3046 3045 3045
3039 3041 3042 3044 3045 3047 3048 3049 3050 3051 3052 3052 3053 3053 3054 3054 3054 3054 3054 3054 3054 3054 3053 3052 3051 3051 3050 3049 3047 3045 3044 3043 3042 3041 3042 3039 3038 3037 3036 3036 3035 3034 3033